TimeCST,TemperatureF,Dew PointF,Humidity,Sea Level PressureIn,VisibilityMPH,Wind Direction,Wind SpeedMPH,Gust SpeedMPH,PrecipitationIn,Events,Conditions,WindDirDegrees,DateUTC
12:15 AM,31.5,27.9,87,30.29,10.0,North,4.6,-,N/A,,Clear,360,2013-03-08 06:15:00
12:35 AM,31.6,28.0,87,30.30,10.0,Calm,Calm,-,N/A,,Clear,0,2013-03-08 06:35:00
12:55 AM,30.6,27.5,88,30.29,10.0,North,4.6,-,N/A,,Clear,10,2013-03-08 06:55:00
1:15 AM,30.4,27.3,88,30.29,10.0,NNE,4.6,-,N/A,,Clear,20,2013-03-08 07:15:00
1:35 AM,29.7,26.8,89,30.30,10.0,Calm,Calm,-,N/A,,Clear,0,2013-03-08 07:35:00
1:55 AM,28.9,26.8,92,30.29,10.0,Calm,Calm,-,N/A,,Clear,0,2013-03-08 07:55:00
2:15 AM,28.2,26.2,92,30.29,7.0,Calm,Calm,-,N/A,,Clear,0,2013-03-08 08:15:00
2:35 AM,27.9,26.1,93,30.30,7.0,Calm,Calm,-,N/A,,Clear,0,2013-03-08 08:35:00
2:55 AM,27.3,25.9,94,30.29,7.0,Calm,Calm,-,N/A,,Clear,0,2013-03-08 08:55:00
3:15 AM,27.0,25.5,94,30.29,7.0,Calm,Calm,-,N/A,,Clear,0,2013-03-08 09:15:00
3:55 AM,27.0,25.7,95,30.31,7.0,Calm,Calm,-,N/A,,Clear,0,2013-03-08 09:55:00
4:15 AM,26.8,25.3,94,30.31,5.0,Calm,Calm,-,N/A,,Clear,0,2013-03-08 10:15:00
4:35 AM,25.9,24.8,96,30.31,7.0,Calm,Calm,-,N/A,,Clear,0,2013-03-08 10:35:00
4:55 AM,25.3,24.1,95,30.31,5.0,Calm,Calm,-,N/A,,Clear,0,2013-03-08 10:55:00
5:15 AM,25.7,24.6,96,30.32,5.0,Calm,Calm,-,N/A,,Clear,0,2013-03-08 11:15:00
6:35 AM,25.0,23.9,96,30.32,4.0,Calm,Calm,-,N/A,,Clear,0,2013-03-08 12:35:00
6:55 AM,26.2,25.2,96,30.32,4.0,Calm,Calm,-,N/A,,Clear,0,2013-03-08 12:55:00
7:15 AM,29.3,27.5,93,30.33,5.0,North,3.5,-,N/A,,Clear,10,2013-03-08 13:15:00
7:35 AM,31.8,28.4,87,30.34,7.0,NNE,3.5,-,N/A,,Clear,30,2013-03-08 13:35:00
7:55 AM,34.0,29.1,82,30.35,10.0,Calm,Calm,-,N/A,,Clear,0,2013-03-08 13:55:00
8:15 AM,36.0,29.1,76,30.36,10.0,ENE,4.6,-,N/A,,Clear,60,2013-03-08 14:15:00
8:35 AM,37.8,28.6,69,30.36,10.0,NE,4.6,-,N/A,,Clear,40,2013-03-08 14:35:00
8:55 AM,39.6,28.6,65,30.36,10.0,Calm,Calm,-,N/A,,Clear,0,2013-03-08 14:55:00
9:15 AM,41.9,28.4,59,30.36,10.0,NE,6.9,-,N/A,,Clear,40,2013-03-08 15:15:00
9:35 AM,43.9,27.5,53,30.36,10.0,NE,5.8,-,N/A,,Clear,50,2013-03-08 15:35:00
9:55 AM,46.0,26.4,46,30.37,10.0,NNE,5.8,-,N/A,,Clear,20,2013-03-08 15:55:00
10:15 AM,47.3,24.8,41,30.37,10.0,NNE,3.5,-,N/A,,Clear,30,2013-03-08 16:15:00
10:35 AM,50.0,22.8,34,30.36,10.0,NE,4.6,-,N/A,,Clear,50,2013-03-08 16:35:00
10:55 AM,52.0,24.4,34,30.33,10.0,ENE,5.8,-,N/A,,Clear,60,2013-03-08 16:55:00
11:15 AM,53.8,24.6,32,30.33,10.0,NNE,5.8,-,N/A,,Clear,30,2013-03-08 17:15:00
11:35 AM,54.7,25.2,32,30.33,10.0,North,8.1,-,N/A,,Clear,10,2013-03-08 17:35:00
11:55 AM,56.1,22.5,27,30.32,10.0,NNW,4.6,-,N/A,,Clear,340,2013-03-08 17:55:00
12:15 PM,57.4,23.7,27,30.32,10.0,NE,6.9,-,N/A,,Clear,40,2013-03-08 18:15:00
12:35 PM,58.6,22.3,25,30.31,10.0,NNE,6.9,-,N/A,,Clear,20,2013-03-08 18:35:00
12:55 PM,58.5,19.0,22,30.29,10.0,North,5.8,-,N/A,,Clear,10,2013-03-08 18:55:00
1:15 PM,58.8,18.7,21,30.29,10.0,Calm,Calm,-,N/A,,Clear,0,2013-03-08 19:15:00
1:35 PM,59.7,21.2,23,30.29,10.0,Calm,Calm,-,N/A,,Clear,0,2013-03-08 19:35:00
1:55 PM,61.2,22.5,23,30.28,10.0,NE,5.8,-,N/A,,Clear,40,2013-03-08 19:55:00
2:15 PM,61.9,23.7,23,30.28,10.0,North,6.9,-,N/A,,Clear,350,2013-03-08 20:15:00
2:35 PM,62.2,25.2,24,30.28,10.0,NW,5.8,-,N/A,,Clear,310,2013-03-08 20:35:00
2:55 PM,62.6,25.3,24,30.27,10.0,NNW,6.9,-,N/A,,Clear,330,2013-03-08 20:55:00
3:15 PM,61.9,23.9,23,30.27,10.0,Calm,Calm,-,N/A,,Clear,0,2013-03-08 21:15:00
3:35 PM,61.9,24.3,24,30.27,10.0,Calm,Calm,-,N/A,,Clear,0,2013-03-08 21:35:00
3:55 PM,62.1,25.2,25,30.27,10.0,NNE,5.8,-,N/A,,Clear,30,2013-03-08 21:55:00
4:15 PM,61.3,24.6,25,30.27,10.0,NNW,4.6,-,N/A,,Clear,340,2013-03-08 22:15:00
4:35 PM,61.0,25.0,25,30.27,10.0,NNW,4.6,-,N/A,,Clear,340,2013-03-08 22:35:00
4:55 PM,60.3,25.5,27,30.27,10.0,Calm,Calm,-,N/A,,Clear,0,2013-03-08 22:55:00
5:15 PM,59.0,25.9,28,30.28,10.0,NNW,3.5,-,N/A,,Clear,330,2013-03-08 23:15:00
5:35 PM,56.8,26.4,31,30.28,10.0,NW,3.5,-,N/A,,Clear,320,2013-03-08 23:35:00
5:55 PM,53.8,27.7,37,30.27,10.0,Calm,Calm,-,N/A,,Clear,0,2013-03-08 23:55:00
6:15 PM,49.3,30.6,49,30.27,10.0,Calm,Calm,-,N/A,,Clear,0,2013-03-09 00:15:00
6:35 PM,47.7,31.6,54,30.27,10.0,Calm,Calm,-,N/A,,Clear,0,2013-03-09 00:35:00
6:55 PM,46.6,31.1,55,30.28,10.0,Calm,Calm,-,N/A,,Clear,0,2013-03-09 00:55:00
7:15 PM,44.4,31.6,61,30.28,10.0,Calm,Calm,-,N/A,,Clear,0,2013-03-09 01:15:00
7:35 PM,43.9,31.1,61,30.28,10.0,Calm,Calm,-,N/A,,Clear,0,2013-03-09 01:35:00
7:55 PM,42.8,30.9,63,30.27,10.0,Calm,Calm,-,N/A,,Clear,0,2013-03-09 01:55:00
8:15 PM,42.4,31.5,65,30.27,10.0,Calm,Calm,-,N/A,,Clear,0,2013-03-09 02:15:00
8:35 PM,42.1,31.3,66,30.26,10.0,Calm,Calm,-,N/A,,Clear,0,2013-03-09 02:35:00
8:55 PM,42.1,31.5,66,30.26,10.0,Calm,Calm,-,N/A,,Clear,0,2013-03-09 02:55:00
9:15 PM,41.9,30.9,65,30.26,10.0,Calm,Calm,-,N/A,,Clear,0,2013-03-09 03:15:00
9:35 PM,40.8,31.5,69,30.26,10.0,Calm,Calm,-,N/A,,Clear,0,2013-03-09 03:35:00
9:55 PM,39.7,30.9,71,30.26,10.0,Calm,Calm,-,N/A,,Clear,0,2013-03-09 03:55:00
10:15 PM,39.2,31.1,73,30.26,10.0,Calm,Calm,-,N/A,,Clear,0,2013-03-09 04:15:00
10:35 PM,38.8,31.3,74,30.26,10.0,Calm,Calm,-,N/A,,Clear,0,2013-03-09 04:35:00
10:55 PM,37.8,31.3,77,30.25,10.0,ENE,3.5,-,N/A,,Clear,70,2013-03-09 04:55:00
11:15 PM,36.9,31.6,81,30.25,10.0,Calm,Calm,-,N/A,,Clear,0,2013-03-09 05:15:00
11:35 PM,37.4,31.5,79,30.23,10.0,Calm,Calm,-,N/A,,Clear,0,2013-03-09 05:35:00
11:55 PM,37.6,31.1,77,30.24,10.0,Calm,Calm,-,N/A,,Clear,0,2013-03-09 05:55:00